Previsão horária em Alikonovka

Hoje, 19 Janeiro, Terça-feira

Tempo Temperatura Precipitação Vento Pressão Humidade
00:00 -6°C° 0.1 mm 1 m/s 686 mmHg 95%
01:00 -6°C° 0.2 mm 1 m/s 686 mmHg 95%
02:00 -7°C° 0.2 mm 1 m/s 686 mmHg 95%
03:00 -8°C° 0 mm 2 m/s 687 mmHg 95%
04:00 -9°C° 0.1 mm 2 m/s 687 mmHg 93%
05:00 -9°C° 0.1 mm 2 m/s 687 mmHg 92%
06:00 -9°C° 0.1 mm 1 m/s 687 mmHg 90%
07:00 -8°C° 0 mm 1 m/s 687 mmHg 86%
08:00 -9°C° 0 mm 2 m/s 687 mmHg 81%
09:00 -8°C° 0 mm 2 m/s 687 mmHg 77%
10:00 -7°C° 0 mm 2 m/s 688 mmHg 73%
11:00 -6°C° 0 mm 2 m/s 688 mmHg 70%
12:00 -4°C° 0 mm 2 m/s 688 mmHg 66%
13:00 -5°C° 0 mm 2 m/s 687 mmHg 72%
14:00 -5°C° 0 mm 2 m/s 687 mmHg 77%
15:00 -3°C° 0 mm 1 m/s 687 mmHg 82%
16:00 -6°C° 0 mm 1 m/s 687 mmHg 86%
17:00 -7°C° 0 mm 1 m/s 687 mmHg 89%
18:00 -8°C° 0 mm 1 m/s 688 mmHg 92%
19:00 -8°C° 0 mm 1 m/s 688 mmHg 89%
20:00 -9°C° 0 mm 1 m/s 688 mmHg 86%
21:00 -9°C° 0 mm 1 m/s 688 mmHg 83%
22:00 -9°C° 0 mm 1 m/s 688 mmHg 79%
23:00 -10°C° 0 mm 1 m/s 688 mmHg 75%

Amanhã, 20 Janeiro, Quarta-feira

Tempo Temperatura Precipitação Vento Pressão Humidade
00:00 -12°C° 0 mm 2 m/s 688 mmHg 72%
01:00 -12°C° 0 mm 2 m/s 688 mmHg 69%
02:00 -12°C° 0 mm 2 m/s 688 mmHg 67%
03:00 -12°C° 0 mm 2 m/s 688 mmHg 64%
04:00 -12°C° 0 mm 2 m/s 688 mmHg 65%
05:00 -13°C° 0 mm 2 m/s 688 mmHg 67%
06:00 -11°C° 0 mm 1 m/s 689 mmHg 68%
07:00 -11°C° 0 mm 1 m/s 689 mmHg 69%
08:00 -10°C° 0 mm 1 m/s 689 mmHg 70%
09:00 -10°C° 0 mm 1 m/s 689 mmHg 71%
10:00 -9°C° 0 mm 1 m/s 690 mmHg 74%
11:00 -8°C° 0 mm 1 m/s 690 mmHg 77%
12:00 -7°C° 0 mm 1 m/s 690 mmHg 79%
13:00 -7°C° 0 mm 1 m/s 690 mmHg 82%
14:00 -7°C° 0 mm 1 m/s 690 mmHg 85%
15:00 -7°C° 0 mm 1 m/s 689 mmHg 88%
16:00 -8°C° 0.1 mm 1 m/s 690 mmHg 91%
17:00 -8°C° 0.1 mm 1 m/s 690 mmHg 93%
18:00 -9°C° 0.1 mm 0 m/s 691 mmHg 96%
19:00 -10°C° 0 mm 0 m/s 691 mmHg 94%
20:00 -10°C° 0 mm 1 m/s 691 mmHg 93%
21:00 -11°C° 0 mm 1 m/s 691 mmHg 91%
22:00 -11°C° 0 mm 1 m/s 692 mmHg 87%
23:00 -11°C° 0 mm 1 m/s 692 mmHg 83%

Depois de amanhã, 21 Janeiro, Quinta-feira

Tempo Temperatura Precipitação Vento Pressão Humidade
00:00 -11°C° 0 mm 1 m/s 692 mmHg 79%
01:00 -13°C° 0 mm 2 m/s 692 mmHg 75%
02:00 -13°C° 0 mm 2 m/s 692 mmHg 72%
03:00 -13°C° 0 mm 2 m/s 692 mmHg 68%
04:00 -13°C° 0 mm 2 m/s 693 mmHg 67%
05:00 -13°C° 0 mm 2 m/s 693 mmHg 66%
06:00 -13°C° 0 mm 2 m/s 693 mmHg 65%
07:00 -12°C° 0 mm 2 m/s 694 mmHg 65%
08:00 -12°C° 0 mm 2 m/s 694 mmHg 66%
09:00 -10°C° 0 mm 2 m/s 695 mmHg 66%
10:00 -9°C° 0 mm 3 m/s 695 mmHg 65%
11:00 -7°C° 0 mm 3 m/s 695 mmHg 63%
12:00 -5°C° 0 mm 3 m/s 695 mmHg 62%
13:00 -4°C° 0 mm 2 m/s 695 mmHg 66%
14:00 -2°C° 0 mm 1 m/s 695 mmHg 70%
15:00 -2°C° 0 mm 1 m/s 695 mmHg 74%
16:00 -3°C° 0 mm 1 m/s 695 mmHg 72%
17:00 -6°C° 0 mm 2 m/s 695 mmHg 70%
18:00 -8°C° 0 mm 2 m/s 696 mmHg 69%
19:00 -8°C° 0 mm 2 m/s 696 mmHg 64%
20:00 -7°C° 0 mm 2 m/s 696 mmHg 60%
21:00 -7°C° 0 mm 2 m/s 696 mmHg 55%
22:00 -7°C° 0 mm 2 m/s 696 mmHg 53%
23:00 -7°C° 0 mm 2 m/s 696 mmHg 51%

22 Janeiro, Sexta-feira

Tempo Temperatura Precipitação Vento Pressão Humidade
00:00 -7°C° 0 mm 2 m/s 696 mmHg 49%
01:00 -7°C° 0 mm 2 m/s 696 mmHg 48%
02:00 -6°C° 0 mm 2 m/s 696 mmHg 47%
03:00 -7°C° 0 mm 3 m/s 695 mmHg 45%
04:00 -6°C° 0 mm 2 m/s 695 mmHg 44%
05:00 -6°C° 0 mm 2 m/s 695 mmHg 43%
06:00 -6°C° 0 mm 2 m/s 695 mmHg 41%
07:00 -5°C° 0 mm 2 m/s 695 mmHg 44%
08:00 -4°C° 0 mm 2 m/s 695 mmHg 46%
09:00 -3°C° 0 mm 2 m/s 695 mmHg 48%
10:00 0°C° 0 mm 1 m/s 695 mmHg 53%
11:00 +2°C° 0 mm 1 m/s 695 mmHg 57%
12:00 +3°C° 0 mm 0 m/s 695 mmHg 62%
13:00 +3°C° 0 mm 0 m/s 695 mmHg 63%
14:00 +3°C° 0 mm 0 m/s 694 mmHg 64%
15:00 +2°C° 0 mm 0 m/s 694 mmHg 64%
16:00 +2°C° 0 mm 1 m/s 694 mmHg 59%
17:00 +1°C° 0 mm 1 m/s 694 mmHg 54%
18:00 -3°C° 0 mm 2 m/s 694 mmHg 49%
19:00 -3°C° 0 mm 2 m/s 694 mmHg 48%
20:00 -3°C° 0 mm 2 m/s 694 mmHg 48%
21:00 -3°C° 0 mm 2 m/s 694 mmHg 47%
22:00 -3°C° 0 mm 2 m/s 694 mmHg 47%
23:00 -3°C° 0 mm 2 m/s 694 mmHg 46%

23 Janeiro, Sábado

Tempo Temperatura Precipitação Vento Pressão Humidade
00:00 -3°C° 0 mm 2 m/s 694 mmHg 46%
01:00 -3°C° 0 mm 2 m/s 694 mmHg 46%
02:00 -3°C° 0 mm 2 m/s 693 mmHg 46%
03:00 -3°C° 0 mm 2 m/s 693 mmHg 46%
04:00 -2°C° 0 mm 2 m/s 693 mmHg 45%
05:00 -2°C° 0 mm 2 m/s 693 mmHg 45%
06:00 -2°C° 0 mm 2 m/s 693 mmHg 44%
07:00 -2°C° 0 mm 2 m/s 693 mmHg 47%
08:00 -1°C° 0 mm 2 m/s 693 mmHg 49%
09:00 -1°C° 0 mm 2 m/s 694 mmHg 51%
10:00 +2°C° 0 mm 1 m/s 693 mmHg 57%
11:00 +4°C° 0 mm 1 m/s 693 mmHg 64%
12:00 +4°C° 0 mm 0 m/s 693 mmHg 71%
13:00 +4°C° 0 mm 0 m/s 693 mmHg 70%
14:00 +4°C° 0 mm 0 m/s 692 mmHg 69%
15:00 +4°C° 0 mm 0 m/s 692 mmHg 68%
16:00 +4°C° 0 mm 1 m/s 692 mmHg 64%
17:00 +3°C° 0 mm 1 m/s 692 mmHg 61%
18:00 +2°C° 0 mm 1 m/s 692 mmHg 57%
19:00 +1°C° 0 mm 2 m/s 692 mmHg 56%
20:00 -1°C° 0 mm 2 m/s 692 mmHg 55%
21:00 -1°C° 0 mm 2 m/s 692 mmHg 54%
22:00 -1°C° 0 mm 2 m/s 692 mmHg 53%
23:00 -1°C° 0 mm 2 m/s 691 mmHg 52%

24 Janeiro, Domingo

Tempo Temperatura Precipitação Vento Pressão Humidade
00:00 -1°C° 0 mm 2 m/s 691 mmHg 51%
01:00 -1°C° 0 mm 2 m/s 691 mmHg 50%
02:00 -1°C° 0 mm 2 m/s 690 mmHg 49%
03:00 -1°C° 0 mm 2 m/s 690 mmHg 48%
04:00 -1°C° 0 mm 2 m/s 690 mmHg 47%
05:00 -1°C° 0 mm 2 m/s 690 mmHg 46%
06:00 -1°C° 0 mm 2 m/s 690 mmHg 46%
07:00 +1°C° 0 mm 2 m/s 690 mmHg 46%
08:00 +1°C° 0 mm 2 m/s 690 mmHg 47%
09:00 +2°C° 0 mm 2 m/s 689 mmHg 48%
10:00 +4°C° 0 mm 1 m/s 689 mmHg 54%
11:00 +5°C° 0 mm 1 m/s 689 mmHg 60%
12:00 +7°C° 0 mm 1 m/s 689 mmHg 65%
13:00 +7°C° 0 mm 1 m/s 689 mmHg 64%
14:00 +7°C° 0 mm 1 m/s 688 mmHg 63%
15:00 +7°C° 0 mm 1 m/s 688 mmHg 62%
16:00 +6°C° 0 mm 1 m/s 688 mmHg 60%
17:00 +5°C° 0 mm 1 m/s 689 mmHg 59%
18:00 +5°C° 0 mm 1 m/s 689 mmHg 57%
19:00 +4°C° 0 mm 2 m/s 689 mmHg 56%
20:00 +4°C° 0 mm 2 m/s 689 mmHg 55%
21:00 +4°C° 0 mm 2 m/s 689 mmHg 53%
22:00 +4°C° 0 mm 2 m/s 689 mmHg 52%
23:00 +3°C° 0 mm 2 m/s 689 mmHg 50%
Mostrar mais

Necessitamos do seu Consentimento

A Meteoprog e os seus Fornecedores de Serviços podem armazenar e aceder a dados pessoais como cookies, identificadores do dispositivo ou outras tecnologias semelhantes existentes no seu dispositivo e processar estes dados para personalizar conteúdos e anúncios, assim como funcionalidades nas redes sociais e análise de tráfego.

  • Armazenar e/ou aceder a informações no seu dispositivo

    Os cookies, identificadores do dispositivo ou outras informações podem ser armazenados ou acedidos no seu dispositivo, para os fins acima indicados.

  • Anúncios e conteúdos personalizados, medição de anúncios e conteúdos, dados sobre o público-alvo e desenvolvimento de produtos

    Os anúncios e os conteúdos podem ser personalizados com base num perfil. Podem ser adicionados dados adicionais para uma maior personalização dos anúncios e dos conteúdos. A eficácia dos anúncios e dos conteúdos pode ser medida. Podem ser obtidas informações sobre o público que visualizou os anúncios e os conteúdos. Estes dados podem ser usados para desenvolver ou melhorar sistemas, softwares ou a experiência do utilizador.

Ao clicar em "Eu concordo”, permitirá o uso de cookies, identificadores do dispositivo e web beacons mencionados ou outras tecnologias semelhantes. As configurações do navegador do seu dispositivo podem ser alteradas.

Para certos fins, podem ser invocados interesses legítimos ao invés de consentimento. Pode ler mais informação sobre este assunto na nossa Política de Privacidade e Cookies.